Vorticity
nan nan nan nan nan nan nan nan nan nan nan nan nan nan nan nan nan nan nan nan nan nan nan nan nan nan nan nan nan nan nan nan nan
nan 7 8 7 6 6 7 8 8 9 10 12 11 13 10 9 12 12 11 11 12 11 13 12 8 7 9 9 8 9 10 8 nan
nan 6 6 5 7 8 7 8 6 7 8 8 9 9 10 10 10 10 11 12 11 12 13 12 12 11 12 11 9 10 9 8 nan
nan 8 6 6 7 7 7 7 8 8 8 8 8 8 9 8 8 10 11 9 9 10 12 10 11 11 12 13 12 12 11 9 nan
nan 9 8 8 9 8 7 8 8 9 8 7 7 8 9 9 8 8 9 8 9 9 10 11 11 11 10 11 12 13 12 10 nan
nan 9 9 8 8 8 9 8 8 7 8 7 7 8 9 9 8 8 8 8 8 9 9 9 10 11 11 11 12 12 10 10 nan
nan 8 7 7 8 8 8 9 8 8 7 7 8 8 10 9 8 9 9 8 8 8 9 8 8 9 10 10 11 13 13 12 nan
nan 8 7 8 8 8 8 8 8 7 7 8 9 9 9 8 8 8 8 8 9 10 10 9 9 8 9 9 10 8 9 13 nan
nan 7 9 9 10 9 9 9 8 6 6 9 11 9 8 8 9 9 9 8 9 9 9 9 9 9 9 9 7 4 7 12 nan
nan 7 9 10 9 9 9 8 8 8 10 9 9 8 8 10 10 10 10 9 9 9 11 10 9 9 9 10 9 8 7 8 nan
nan 10 9 9 9 8 8 7 8 9 10 10 9 9 9 9 9 11 12 11 10 9 8 9 11 11 10 10 10 10 7 10 nan
nan 10 10 10 9 9 8 8 9 10 9 9 8 8 9 9 10 9 9 7 11 13 9 9 11 10 10 10 10 10 9 12 nan
nan 11 13 11 8 9 8 8 10 8 8 8 7 8 9 10 10 10 9 9 10 11 10 11 10 10 10 11 12 12 12 12 nan
nan 13 11 8 9 10 8 8 8 8 8 8 9 10 9 9 9 10 10 10 10 10 10 12 11 11 11 14 14 12 17 16 nan
nan 9 6 8 9 9 9 8 7 7 8 10 10 10 9 9 10 11 10 10 10 12 14 14 13 13 12 12 14 12 10 12 nan
nan 7 6 8 10 9 9 9 8 8 9 9 10 10 10 10 11 11 11 11 12 13 13 14 13 13 12 11 11 9 5 8 nan
nan 9 8 10 10 9 8 8 8 8 9 10 10 10 10 11 11 11 12 12 13 13 10 11 10 10 10 11 10 9 8 10 nan
nan 9 10 11 9 8 9 9 8 8 9 11 10 11 10 9 11 12 12 11 13 12 10 10 11 10 10 9 8 7 13 15 nan
nan 9 9 10 9 9 9 8 7 8 10 10 10 11 11 11 9 11 11 11 16 16 9 1 8 11 12 12 5 4 13 15 nan
nan nan nan nan nan nan nan nan nan nan nan nan nan nan nan nan nan nan nan nan nan nan nan nan nan nan nan nan nan nan nan nan nan
CAPE
1419 877 1214 1069 843 762 654 499 680 768 603 726 890 758 804 899 566 553 511 548 560 795 991 757 805 779 731 939 995 1075 882 708 761
1461 1411 1052 1016 684 585 468 384 342 274 306 494 754 1007 1018 1088 840 784 907 987 849 921 635 756 1108 121 932 832 790 846 1100 1084 1063
540 525 402 114 29 20 0 0 0 0 0 0 0 0 5 42 2 0 3 192 307 588 796 559 882 790 949 1085 1026 926 1013 1182 1239
215 80 5 0 0 0 0 0 0 0 0 0 0 0 0 0 0 0 0 0 0 1 60 140 248 425 406 602 957 1266 1179 1303 851
9 0 0 0 0 0 0 0 0 0 0 0 0 0 0 0 0 0 0 0 0 0 1 0 42 109 189 243 684 953 601 761 1326
0 0 0 0 0 0 0 0 0 0 0 0 0 0 0 0 0 0 0 0 0 0 0 0 0 1 50 152 395 663 572 543 662
0 0 0 0 0 0 0 0 0 0 0 0 0 0 0 0 0 0 0 0 0 0 0 0 0 0 0 1 46 328 463 332 476
0 0 0 0 0 0 0 0 0 0 0 0 0 0 0 0 0 0 0 0 0 0 0 0 0 0 0 0 0 44 95 345 851
0 0 0 0 0 0 0 0 0 0 0 0 0 0 0 0 0 0 0 0 0 0 0 0 0 0 0 0 0 0 0 0 114
0 0 0 0 0 0 0 0 0 0 0 0 0 0 0 0 0 0 0 0 0 0 0 2 1 0 0 0 0 0 0 0 0
0 0 0 0 0 0 0 0 0 0 0 0 0 0 0 0 0 0 0 0 0 0 0 1 1 2 1 1 0 0 0 0 0
0 0 0 0 0 0 0 0 0 0 0 0 0 0 0 0 0 0 5 4 1 0 0 1 1 1 2 2 2 0 0 0 0
0 0 0 0 0 0 0 0 0 0 0 0 0 0 0 0 0 0 0 0 0 0 0 1 0 0 0 0 1 0 0 0 1
0 0 0 0 0 0 0 0 0 0 0 0 0 1 2 0 0 0 0 0 0 0 0 0 0 0 0 1 1 1 0 0 2
0 0 0 0 0 0 0 0 0 0 0 0 6 2 0 0 0 0 0 0 0 0 0 1 2 10 8 0 7 2 1 0 0
0 0 0 0 0 0 0 0 0 0 0 0 1 0 0 0 0 0 0 0 3 5 1 4 2 3 4 4 7 6 0 1 0
0 0 0 0 0 0 0 0 0 0 0 0 3 1 0 0 0 0 0 0 1 1 1 3 4 2 2 4 4 3 2 2 2
0 0 0 0 0 0 0 0 0 0 0 0 0 3 1 0 0 0 0 0 0 3 2 1 2 2 2 5 2 1 0 0 1
0 0 0 0 0 0 0 0 0 0 0 0 0 0 0 0 0 0 0 0 0 0 0 0 0 0 0 0 0 0 0 0 0
0 0 0 0 0 0 0 0 0 0 0 0 0 0 0 0 0 0 0 0 0 3 0 1 0 0 0 0 0 0 0 0 0